www.pogodaiklimat.ru

Погода и климат >> Архив погоды >> Сирия >> Damascus


АРХИВ ПОГОДЫ в Damascus

Время (UTC), дата Ветер
(напр.,м/с)
 
Видим.   Явления Облачность Т
(С)
Тd
(С)
f
(%)
Тe
(С)
Тes
(С)
Комфортность P
(гПа)
Po
(гПа)
Тmin
(С)
Tmax
(С)
R
(мм)
R24
(мм)
S
(см)
03 9.07 штиль 0 15 км ясно +17.4 +7.0 50 +17 +18 холодно 1005.8 939.1
06 9.07 штиль 0 10 км ясно +25.6 +8.1 33 +26 +39 жарко 1006.8 940.1 +17.4
09 9.07 ЮЗ 4 15 км ясно +34.0 +12.8 28 +34 +49 очень
жарко
1005.8 939.8
12 9.07 ЮЗ 4 15 км ясно +38.3 +13.6 23 +39 +49 очень
душно
1004.2 938.1
15 9.07 ЮЗ 5 15 км ясно +37.4 +13.9 25 +38 +39 душно 1003.4 937.1
18 9.07 ЮЗ 3 15 км ясно +29.6 +10.7 31 +30 +30 жарко 1004.8 938.3
21 9.07 ЮЗ 5 15 км ясно +25.0 +12.3 45 +27 +38 жарко 1005.9 939.8
00 10.07 ЮЗ 1 15 км ясно +22.2 +12.4 54 +25 +25 комфорт 1005.2 939.3
03 10.07 ЮЗ 2 15 км ясно +19.6 +13.9 70 +22 +22 комфорт 1005.7 939.4
06 10.07 Ю 4 15 км ясно +26.4 +14.4 48 +29 +36 жарко 1006.2 939.8 +19.6
09 10.07 Ю 4 15 км ясно +34.0 +14.4 31 +35 +50 очень
жарко
1005.3 939.2
12 10.07 Ю 8 15 км ясно +39.0 +10.2 18 +38 +40 очень
жарко
1003.7 937.9
15 10.07 Ю 12 15 км ясно +35.8 +11.9 24 +36 +36 очень
жарко
1003.1 936.8
18 10.07 ЮЗ 10 15 км ясно +28.0 +11.1 35 +29 +29 жарко 1004.0 937.5 +39.3
21 10.07 Ю 8 15 км ясно +23.5 +13.8 54 +26 +26 жарко 1005.1 938.9
00 11.07 ЮЗ 9 15 км ясно +20.6 +17.3 81 +24 +24 комфорт 1004.5 938.5
06 11.07 Ю 7 15 км ясно +23.9 +17.9 69 +28 +31 душно 1006.1 939.4 +19.0
09 11.07 З 3 15 км ясно +31.4 +15.2 38 +34 +51 опасность
солнечного
удара
1004.7 938.3
12 11.07 СВ 1 15 км ясно +37.0 +12.2 23 +37 +55 опасность
солнечного
удара
1002.7 936.6
15 11.07 Ю 13 15 км ясно +33.4 +17.2 38 +37 +37 очень
душно
1002.9 936.3
18 11.07 Ю 12 15 км ясно +25.6 +16.9 59 +29 +29 душно 1004.2 937.3 +37.2
21 11.07 Ю 9 15 км ясно +22.0 +17.3 75 +26 +26 душно 1004.5 938.1
00 12.07 ЮЗ 6 15 км ясно +20.4 +17.2 82 +23 +23 комфорт 1000.6 937.5
06 12.07 ЮЗ 3 10 км ясно +23.2 +17.3 69 +28 +37 душно 1005.5 938.4 +19.0
09 12.07 Ю 4 10 км ясно +31.0 +14.9 38 +33 +47 душно 1004.2 937.5
12 12.07 Ю 10 20 км ясно +35.2 +13.7 28 +36 +37 очень
жарко
1002.6 936.3
15 12.07 ЮЗ 13 20 км ясно +32.4 +14.0 33 +34 +34 очень
жарко
1001.4 934.8
18 12.07 ЮЗ 13 20 км ясно +24.8 +13.6 50 +27 +27 жарко 1002.7 935.6 +36.0
21 12.07 ЮЗ 11 20 км ясно +21.6 +15.1 67 +25 +25 комфорт 1003.1 936.5
03 13.07 ЮЗ 5 10 км ясно +18.4 +15.8 85 +19 +19 прохладно 1002.1 935.8
06 13.07 ЮЗ 8 10 км ясно +23.8 +15.4 59 +27 +29 жарко 1002.6 935.6 +18.0
09 13.07 ЮЗ 8 10 км ясно +30.4 +15.1 39 +33 +36 душно 1001.2 934.6
12 13.07 ЮЗ 10 10 км ясно +34.8 +17.4 36 +38 +39 очень
душно
998.7 932.5
15 13.07 ЮЗ 10 10 км ясно +32.6 +18.6 44 +38 +38 очень
душно
998.1 972.1
18 13.07 ЮЗ 8 10 км ясно +25.8 +16.8 58 +30 +30 душно 999.2 992.6 +35.0
21 13.07 ЮЗ 9 10 км ясно +23.0 +18.4 75 +29 +29 очень
душно
1000.0 933.6
03 14.07 ЮЗ 9 10 км ясно +21.6 +19.6 88 +27 +27 душно 998.4 932.5
06 14.07 ЮЗ 10 10 км ясно +26.0 +20.0 70 +32 +32 очень
душно
999.6 933.2 +21.0
09 14.07 Ю 10 15 км ясно +34.6 +19.1 40 +40 +41 очень
душно
997.6 932.0
12 14.07 СЗ 10 15 км ясно +37.0 +13.4 24 +37 +38 очень
жарко
997.2 931.7
15 14.07 З 7 15 км ясно +35.0 +14.8 30 +36 +37 очень
жарко
996.6 930.9
18 14.07 З 9 15 км ясно +29.0 +14.0 40 +31 +31 жарко 998.0 932.1 +37.4
03 15.07 ЮЗ 9 15 км ясно +21.0 +17.9 82 +25 +25 комфорт 999.2 933.3
15 15.07 СЗ 12 15 км ясно +35.4 +13.7 27 +36 +36 очень
жарко
947.7 931.9
18 15.07 СЗ 6 15 км ясно +30.4 +11.1 30 +31 +31 жарко 999.2 933.3 +37.2
21 15.07 ЮЗ 6 15 км ясно +25.0 +12.3 45 +27 +27 жарко 1000.0 934.3

 

Местоположение метеостанции Damascus (Сирия): широта 33.42 долгота 36.52 высота над уровнем моря 609 м.

В архиве по умолчанию представлена погода в Damascus за последнюю неделю. Архивные данные за месяц целиком и за предыдущие месяцы, начиная с января 2011 года, Вы можете получить, выбрав интересующий диапазон дат из раскрывающегося списка и нажав кнопку "Ввод!".


*Определитесь, кто Вы:
робот инопланетянин человек

Внимание! Время в таблицах - всемирное. Для получения местного времени необходимо прибавить поправку, которая в Damascus равна 2 ч.

Смотрите также архив погоды в соседних городах и на ближайших метеорологических станциях:

Погода в Nabk (Сирия) (70 км)
Погода в Haouch-Al-Oumara (Ливан) (76 км)
Погода в Daraa (Сирия) (99 км)
Погода в Beyrouth (Ливан) (105 км)
Погода в Safed (Израиль) (107 км)
Погода в Irbed (Иордания) (115 км)
Погода в Al-Mafraq (Иордания) (119 км)
Погода в Tripoli (Ливан) (131 км)
Погода в Safawi (Иордания) (147 км)
Погода в Safita (Сирия) (160 км)

Пояснения к столбцам:

Ветер - указаны скорость ветра в м/с - средняя за 10 мин, порывы в срок и между сроками (в фигурных скобках) и направление, откуда дует ветер: С - северный, СВ - северо-восточный, В - восточный, ЮВ - юго-восточный, Ю - южный, ЮЗ - юго-западный, З - западный, СЗ - северо-западный.
Видимость - горизонтальная дальность видимости в метрах или километрах. При видимости от 1 до 10 км при отсутствии осадков обычно наблюдается дымка, при ухудшении видимости до 1 км и менее - туман. В сухую погоду видимость может ухудшаться дымом, пылью или мглою.
Явления - указаны атмосферные явления, наблюдавшиеся в срок или в последний час перед сроком; фигурными скобками обозначены явления, наблюдавшиеся между сроками (за 1-3 часа до срока); квадратными скобками обозначены град или гололедные отложения с указанием их диаметра в мм.
Облачность - указаны через наклонную черту общая и нижняя облачность в баллах и высота нижней границы облаков в метрах; квадратными скобками обозначены формы облаков: Ci - перистые, Cs - перисто-слоистые, Cc - перисто-кучевые, Ac - высококучевые, As - высокослоистые, Sc - слоисто-кучевые, Ns - слоисто-дождевые, Cu - кучевые, Cb - кучево-дождевые. Подробнее классификацию облаков см. в Атласе облаков (PDF).
T - Температура воздуха - температура, измеренная на высоте 2 м над землей.
Td - Температура точки росы - температура, при понижении до которой содержащийся в воздухе водяной пар достигнет насыщения.
f - Относительная влажность воздуха - влажноcть воздуха, измеренная на высоте 2 м над землей.
Te - Эффективная температура - температура, которую ощущает одетый по сезону человек в тени. Характеристика душности погоды. При расчете учитывается влияние влажности воздуха и скорости ветра на теплоощущения человека.
Tes - Эффективная температура на солнце - температура, которую ощущает человек, с поправкой на солнечный нагрев. Характеристика знойности погоды. Зависит от высоты солнца над горизонтом, облачности и скорости ветра. Ночью, в пасмурную погоду, а также при ветре 12 м/с и более поправка равна нулю.
P - Атмосферное давление - приведенное к уровню моря атмосферное давление.
Po - Атмосферное давление - измеренное на уровне метеостанции атмосферное давление.
Tmin - Минимальная температура - минимум температуры воздуха на высоте 2 м над землей.
Tmax - Максимальная температура - максимум температуры воздуха на высоте 2 м над землей.
R - Количество осадков - Количество выпавших осадков за период времени, мм. При наведении курсора мыши на число - период времени, за который выпало указанное количество осадков.
R24 - Количество осадков - Количество выпавших осадков за 24 часа, мм.
S - Снежный покров - Высота снежного покрова, см. При наведении курсора мыши на число - состояние снежного покрова и степень покрытия местности в баллах.